User: anonymous   Login
Location: NJAA Observatory
(40.6819°N, 74.8979°W)
Time: 08:46:39
(UTC-04:00)
Language:

Cosmos 1328 Rocket - Orbit

View from above orbital plane
View from above orbital plane
View from above satellite
View from above satellite

Ground track
Ground track

The orbit data is extracted from the following two-line orbital elements,

1 12988U 81117B   14303.99280137  .00000601  00000-0  68840-4 0  1962
2 12988 082.5255 253.7555 0019739 136.4271 267.9970 14.84165131777366
Epoch (UTC): 30 October 2014 23:49:38
Eccentricity: 0.0019739
inclination: 82.5255°
perigee height: 602 km
apogee height: 630 km
right ascension of ascending node: 253.7555°
argument of perigee: 136.4271°
revolutions per day: 14.84165131
mean anomaly at epoch: 267.9970°
orbit number at epoch: 77736

The dashed part of the orbit path shows where the satellite is in the earth's shadow,  

DLR